Location: Boda
(47.1872°N, 9.5454°E)
Time: 07:57:26
(UTC+00:00)

Cosmos 1455 - Pass Details

Date: 14 May 2021
Orbit: 499 x 520 km, 82.5° (Epoch: 16 June)

Event Time Altitude Azimuth Distance (km) Brightness Sun altitude
Rises 02:47:05 0° 353° (N) 2,643 6.3 -9.2°
Reaches altitude 10° 02:49:15 10° 357° (N) 1,755 5.4 -8.9°
Maximum altitude 02:53:04 63° 78° (ENE) 585 2.7 -8.4°
Drops below altitude 10° 02:56:53 10° 161° (SSE) 1,748 4.7 -7.9°
Sets 02:59:01 0° 165° (SSE) 2,632 5.6 -7.6°
